Time,TemperatureF,DewpointF,PressureIn,WindDirection,WindDirectionDegrees,WindSpeedMPH,WindSpeedGustMPH,Humidity,HourlyPrecipIn,Conditions,Clouds,dailyrainin,SoftwareType,DateUTC
2013-01-11 00:03:00,36.0,35.0,29.70,SSW,198,4.0,9.0,97,0.00,,,0.07,,2013-01-11 06:03:00,
2013-01-11 00:12:00,36.0,35.0,29.70,SSW,198,4.0,9.0,97,0.00,,,0.07,,2013-01-11 06:12:00,
2013-01-11 00:22:00,37.0,36.0,29.69,South,184,6.0,11.0,97,0.00,,,0.07,,2013-01-11 06:22:00,
2013-01-11 00:32:00,36.0,35.0,29.68,SSE,149,4.0,11.0,97,0.00,,,0.07,,2013-01-11 06:32:00,
2013-01-11 00:42:00,36.0,35.0,29.68,SSE,149,4.0,11.0,97,0.00,,,0.07,,2013-01-11 06:42:00,
2013-01-11 00:52:00,36.0,35.0,29.68,South,178,5.0,12.0,97,0.00,,,0.07,,2013-01-11 06:52:00,
2013-01-11 01:02:00,36.0,35.0,29.67,South,191,5.0,7.0,97,0.00,,,0.07,,2013-01-11 07:02:00,
2013-01-11 01:12:00,36.0,35.0,29.67,South,191,5.0,7.0,97,0.00,,,0.07,,2013-01-11 07:12:00,
2013-01-11 01:22:00,37.0,36.0,29.66,SSW,205,7.0,14.0,97,0.01,,,0.08,,2013-01-11 07:22:00,
2013-01-11 01:32:00,37.0,36.0,29.65,South,186,6.0,12.0,97,0.01,,,0.08,,2013-01-11 07:32:00,
2013-01-11 01:42:00,37.0,36.0,29.65,South,181,3.0,8.0,97,0.01,,,0.08,,2013-01-11 07:42:00,
2013-01-11 01:52:00,37.0,36.0,29.65,South,181,3.0,8.0,97,0.01,,,0.08,,2013-01-11 07:52:00,
2013-01-11 02:02:00,37.0,36.0,29.64,SSE,166,2.0,5.0,97,0.01,,,0.08,,2013-01-11 08:02:00,
2013-01-11 02:12:00,36.0,35.0,29.64,South,179,2.0,7.0,97,0.00,,,0.08,,2013-01-11 08:12:00,
2013-01-11 02:22:00,36.0,35.0,29.64,South,179,2.0,7.0,97,0.00,,,0.08,,2013-01-11 08:22:00,
2013-01-11 02:32:00,36.0,35.0,29.63,SE,142,5.0,9.0,97,0.00,,,0.08,,2013-01-11 08:32:00,
2013-01-11 02:42:00,36.0,35.0,29.63,SE,142,5.0,9.0,97,0.00,,,0.08,,2013-01-11 08:42:00,
2013-01-11 02:52:00,36.0,35.0,29.62,South,169,5.0,12.0,97,0.00,,,0.08,,2013-01-11 08:52:00,
2013-01-11 03:02:00,36.0,35.0,29.63,SSE,168,6.0,11.0,97,0.00,,,0.08,,2013-01-11 09:02:00,
2013-01-11 03:12:00,36.0,35.0,29.63,SSE,168,6.0,11.0,97,0.00,,,0.08,,2013-01-11 09:12:00,
2013-01-11 03:22:00,36.0,35.0,29.63,South,180,4.0,11.0,97,0.00,,,0.08,,2013-01-11 09:22:00,
2013-01-11 03:32:00,36.0,35.0,29.63,SSW,200,5.0,8.0,97,0.00,,,0.08,,2013-01-11 09:32:00,
2013-01-11 03:42:00,36.0,35.0,29.63,SSW,200,5.0,8.0,97,0.00,,,0.08,,2013-01-11 09:42:00,
2013-01-11 03:52:00,36.0,35.0,29.62,South,178,3.0,8.0,97,0.00,,,0.08,,2013-01-11 09:52:00,
2013-01-11 04:02:00,36.0,35.0,29.62,SSW,195,3.0,7.0,97,0.00,,,0.08,,2013-01-11 10:02:00,
2013-01-11 04:12:00,36.0,35.0,29.62,SSW,195,3.0,7.0,97,0.00,,,0.08,,2013-01-11 10:12:00,
2013-01-11 04:22:00,35.0,34.0,29.61,South,173,3.0,7.0,97,0.00,,,0.08,,2013-01-11 10:22:00,
2013-01-11 04:32:00,35.0,34.0,29.61,SSE,156,5.0,11.0,97,0.00,,,0.08,,2013-01-11 10:32:00,
2013-01-11 04:42:00,35.0,34.0,29.61,SSE,156,5.0,11.0,97,0.00,,,0.08,,2013-01-11 10:42:00,
2013-01-11 04:52:00,35.0,34.0,29.61,South,178,5.0,13.0,97,0.00,,,0.08,,2013-01-11 10:52:00,
2013-01-11 05:03:00,35.0,34.0,29.61,South,178,5.0,13.0,97,0.00,,,0.08,,2013-01-11 11:03:00,
2013-01-11 05:12:00,35.0,34.0,29.61,South,178,5.0,13.0,97,0.00,,,0.08,,2013-01-11 11:12:00,
2013-01-11 05:22:00,35.0,34.0,29.59,SSW,202,6.0,13.0,97,0.00,,,0.08,,2013-01-11 11:22:00,
2013-01-11 05:33:00,35.0,34.0,29.58,SSE,160,6.0,14.0,97,0.00,,,0.08,,2013-01-11 11:33:00,
2013-01-11 05:42:00,35.0,34.0,29.58,SSE,160,6.0,14.0,97,0.00,,,0.08,,2013-01-11 11:42:00,
2013-01-11 05:52:00,35.0,34.0,29.58,SSE,160,6.0,14.0,97,0.00,,,0.08,,2013-01-11 11:52:00,
2013-01-11 06:03:00,35.0,34.0,29.58,SSE,148,5.0,12.0,97,0.00,,,0.08,,2013-01-11 12:03:00,
2013-01-11 06:12:00,35.0,34.0,29.58,SSE,148,5.0,12.0,97,0.00,,,0.08,,2013-01-11 12:12:00,
2013-01-11 06:22:00,36.0,35.0,29.57,South,180,8.0,16.0,97,0.00,,,0.08,,2013-01-11 12:22:00,
2013-01-11 06:33:00,36.0,35.0,29.57,SSE,153,8.0,13.0,97,0.00,,,0.08,,2013-01-11 12:33:00,
2013-01-11 06:42:00,36.0,35.0,29.57,SSE,153,8.0,13.0,97,0.00,,,0.08,,2013-01-11 12:42:00,
2013-01-11 06:52:00,36.0,35.0,29.57,SSE,153,8.0,13.0,97,0.00,,,0.08,,2013-01-11 12:52:00,
2013-01-11 07:03:00,36.0,35.0,29.56,SSE,149,7.0,12.0,98,0.00,,,0.08,,2013-01-11 13:03:00,
2013-01-11 07:13:00,36.0,35.0,29.56,SSE,149,7.0,12.0,98,0.00,,,0.08,,2013-01-11 13:13:00,
2013-01-11 07:22:00,37.0,36.0,29.55,ESE,117,6.0,13.0,98,0.00,,,0.08,,2013-01-11 13:22:00,
2013-01-11 07:33:00,37.0,36.0,29.54,SE,136,6.0,12.0,98,0.00,,,0.08,,2013-01-11 13:33:00,
2013-01-11 07:42:00,37.0,36.0,29.54,SE,136,6.0,12.0,98,0.00,,,0.08,,2013-01-11 13:42:00,
2013-01-11 07:52:00,38.0,37.0,29.55,SE,130,5.0,13.0,98,0.00,,,0.08,,2013-01-11 13:52:00,
2013-01-11 08:03:00,38.0,37.0,29.54,ESE,117,5.0,9.0,98,0.00,,,0.08,,2013-01-11 14:03:00,
2013-01-11 08:12:00,38.0,37.0,29.54,ESE,117,5.0,9.0,98,0.00,,,0.08,,2013-01-11 14:12:00,
2013-01-11 08:23:00,38.0,37.0,29.54,SSE,147,6.0,12.0,98,0.00,,,0.08,,2013-01-11 14:23:00,
2013-01-11 08:33:00,38.0,37.0,29.54,SSE,151,7.0,13.0,98,0.00,,,0.08,,2013-01-11 14:33:00,
2013-01-11 08:42:00,39.0,38.0,29.54,ESE,114,5.0,14.0,98,0.00,,,0.08,,2013-01-11 14:42:00,
2013-01-11 08:53:00,39.0,38.0,29.54,ESE,114,5.0,14.0,98,0.00,,,0.08,,2013-01-11 14:53:00,
2013-01-11 09:03:00,40.0,39.0,29.54,SE,136,8.0,13.0,98,0.00,,,0.08,,2013-01-11 15:03:00,
2013-01-11 09:12:00,40.0,39.0,29.53,SSE,160,6.0,12.0,98,0.00,,,0.08,,2013-01-11 15:12:00,
2013-01-11 09:23:00,40.0,39.0,29.53,SSE,160,6.0,12.0,98,0.00,,,0.08,,2013-01-11 15:23:00,
2013-01-11 09:33:00,41.0,40.0,29.53,SSE,147,8.0,13.0,98,0.00,,,0.08,,2013-01-11 15:33:00,
2013-01-11 09:43:00,41.0,40.0,29.53,SSE,147,8.0,13.0,98,0.00,,,0.08,,2013-01-11 15:43:00,
2013-01-11 09:52:00,41.0,40.0,29.52,SSE,157,8.0,14.0,98,0.00,,,0.08,,2013-01-11 15:52:00,
2013-01-11 10:03:00,41.0,40.0,29.52,SSE,157,8.0,14.0,98,0.00,,,0.08,,2013-01-11 16:03:00,
2013-01-11 10:12:00,42.0,41.0,29.51,SSE,147,10.0,17.0,98,0.00,,,0.08,,2013-01-11 16:12:00,
2013-01-11 10:22:00,42.0,41.0,29.51,SSE,147,10.0,17.0,98,0.00,,,0.08,,2013-01-11 16:22:00,
2013-01-11 10:33:00,42.0,41.0,29.49,SSE,149,14.0,21.0,98,0.00,,,0.08,,2013-01-11 16:33:00,
2013-01-11 10:42:00,42.0,41.0,29.49,SSE,149,14.0,21.0,98,0.00,,,0.08,,2013-01-11 16:42:00,
2013-01-11 10:52:00,43.0,42.0,29.49,SE,146,12.0,19.0,98,0.00,,,0.08,,2013-01-11 16:52:00,
2013-01-11 11:03:00,43.0,42.0,29.49,SSE,153,10.0,21.0,98,0.00,,,0.08,,2013-01-11 17:03:00,
2013-01-11 11:12:00,43.0,42.0,29.47,South,175,10.0,21.0,98,0.00,,,0.08,,2013-01-11 17:12:00,
2013-01-11 11:22:00,43.0,42.0,29.47,South,175,10.0,21.0,98,0.00,,,0.08,,2013-01-11 17:22:00,
2013-01-11 11:33:00,43.0,42.0,29.47,SSE,149,9.0,17.0,98,0.00,,,0.08,,2013-01-11 17:33:00,
2013-01-11 11:43:00,43.0,42.0,29.47,SSE,149,9.0,17.0,98,0.00,,,0.08,,2013-01-11 17:43:00,
2013-01-11 11:53:00,43.0,42.0,29.46,SSE,164,10.0,19.0,98,0.00,,,0.08,,2013-01-11 17:53:00,
2013-01-11 12:03:00,43.0,42.0,29.46,South,178,9.0,17.0,98,0.00,,,0.08,,2013-01-11 18:03:00,
2013-01-11 12:12:00,43.0,42.0,29.46,South,178,9.0,17.0,98,0.00,,,0.08,,2013-01-11 18:12:00,
2013-01-11 12:23:00,44.0,43.0,29.44,SSE,163,6.0,15.0,98,0.00,,,0.08,,2013-01-11 18:23:00,
2013-01-11 12:33:00,44.0,43.0,29.44,South,172,8.0,17.0,98,0.00,,,0.08,,2013-01-11 18:33:00,
2013-01-11 12:43:00,44.0,43.0,29.44,South,172,8.0,17.0,98,0.00,,,0.08,,2013-01-11 18:43:00,
2013-01-11 12:53:00,45.0,44.0,29.42,South,184,10.0,18.0,96,0.00,,,0.08,,2013-01-11 18:53:00,
2013-01-11 13:02:00,46.0,44.0,29.42,South,169,7.0,16.0,94,0.00,,,0.08,,2013-01-11 19:02:00,
2013-01-11 13:12:00,46.0,44.0,29.42,South,169,7.0,16.0,94,0.00,,,0.08,,2013-01-11 19:12:00,
2013-01-11 13:22:00,47.0,45.0,29.40,SSE,153,6.0,18.0,92,0.00,,,0.08,,2013-01-11 19:22:00,
2013-01-11 13:32:00,47.0,45.0,29.40,South,173,7.0,18.0,91,0.00,,,0.08,,2013-01-11 19:32:00,
2013-01-11 13:43:00,47.0,45.0,29.40,South,173,7.0,18.0,91,0.00,,,0.08,,2013-01-11 19:43:00,
2013-01-11 13:53:00,48.0,45.0,29.39,SSE,152,7.0,15.0,89,0.00,,,0.08,,2013-01-11 19:53:00,
2013-01-11 14:03:00,48.0,45.0,29.38,SSE,165,9.0,14.0,88,0.00,,,0.08,,2013-01-11 20:03:00,
2013-01-11 14:12:00,48.0,45.0,29.38,SSE,165,9.0,14.0,88,0.00,,,0.08,,2013-01-11 20:12:00,
2013-01-11 14:22:00,50.0,46.0,29.38,South,180,10.0,18.0,85,0.00,,,0.08,,2013-01-11 20:22:00,
2013-01-11 14:33:00,50.0,45.0,29.38,South,190,9.0,17.0,83,0.00,,,0.07,,2013-01-11 20:33:00,
2013-01-11 14:43:00,50.0,45.0,29.38,South,190,9.0,17.0,83,0.00,,,0.07,,2013-01-11 20:43:00,
2013-01-11 14:53:00,51.0,45.0,29.38,SSE,165,9.0,15.0,81,0.00,,,0.07,,2013-01-11 20:53:00,
2013-01-11 15:03:00,51.0,45.0,29.39,South,187,8.0,16.0,79,0.00,,,0.07,,2013-01-11 21:03:00,
2013-01-11 15:12:00,51.0,45.0,29.39,South,187,8.0,16.0,79,0.00,,,0.07,,2013-01-11 21:12:00,
2013-01-11 15:23:00,51.0,45.0,29.39,South,187,8.0,16.0,79,0.00,,,0.07,,2013-01-11 21:23:00,
2013-01-11 15:33:00,51.0,44.0,29.38,SSW,204,5.0,17.0,78,0.00,,,0.07,,2013-01-11 21:33:00,
2013-01-11 15:42:00,51.0,44.0,29.38,SSW,204,5.0,17.0,78,0.00,,,0.07,,2013-01-11 21:42:00,
2013-01-11 15:53:00,51.0,45.0,29.39,SSW,202,3.0,13.0,79,0.00,,,0.07,,2013-01-11 21:53:00,
2013-01-11 16:02:00,50.0,44.0,29.38,South,177,5.0,11.0,79,0.00,,,0.07,,2013-01-11 22:02:00,
2013-01-11 16:12:00,50.0,44.0,29.38,South,177,5.0,11.0,79,0.00,,,0.07,,2013-01-11 22:12:00,
2013-01-11 16:22:00,51.0,44.0,29.38,South,189,4.0,18.0,77,0.00,,,0.07,,2013-01-11 22:22:00,
2013-01-11 16:33:00,51.0,44.0,29.40,SSW,213,12.0,23.0,76,0.00,,,0.07,,2013-01-11 22:33:00,
2013-01-11 16:42:00,51.0,44.0,29.40,SSW,213,12.0,23.0,76,0.00,,,0.07,,2013-01-11 22:42:00,
2013-01-11 16:53:00,50.0,43.0,29.39,SSW,199,7.0,17.0,77,0.00,,,0.07,,2013-01-11 22:53:00,
2013-01-11 17:02:00,49.0,42.0,29.40,SW,229,9.0,18.0,78,0.00,,,0.07,,2013-01-11 23:02:00,
2013-01-11 17:13:00,49.0,42.0,29.40,SW,229,9.0,18.0,78,0.00,,,0.07,,2013-01-11 23:13:00,
2013-01-11 17:22:00,49.0,43.0,29.40,SSW,207,6.0,12.0,79,0.00,,,0.07,,2013-01-11 23:22:00,
2013-01-11 17:32:00,48.0,42.0,29.40,SSW,208,4.0,11.0,81,0.00,,,0.07,,2013-01-11 23:32:00,
2013-01-11 17:43:00,48.0,42.0,29.40,SSW,208,4.0,11.0,81,0.00,,,0.07,,2013-01-11 23:43:00,
2013-01-11 17:53:00,47.0,42.0,29.40,SW,227,2.0,8.0,82,0.00,,,0.07,,2013-01-11 23:53:00,
2013-01-11 18:02:00,47.0,42.0,29.40,SW,227,2.0,8.0,82,0.00,,,0.07,,2013-01-12 00:02:00,
2013-01-11 18:12:00,45.0,41.0,29.41,SSW,198,4.0,7.0,86,0.00,,,0.07,,2013-01-12 00:12:00,
2013-01-11 18:23:00,45.0,41.0,29.41,SSW,198,4.0,7.0,86,0.00,,,0.07,,2013-01-12 00:23:00,
2013-01-11 18:32:00,45.0,41.0,29.41,SSW,198,4.0,7.0,86,0.00,,,0.07,,2013-01-12 00:32:00,
2013-01-11 18:43:00,45.0,41.0,29.41,SSW,198,4.0,7.0,86,0.00,,,0.07,,2013-01-12 00:43:00,
2013-01-11 18:53:00,44.0,40.0,29.42,SW,228,2.0,4.0,87,0.00,,,0.01,,2013-01-12 00:53:00,
2013-01-11 19:02:00,43.0,40.0,29.42,SW,230,3.0,6.0,90,0.00,,,0.01,,2013-01-12 01:02:00,
2013-01-11 19:12:00,43.0,40.0,29.42,SW,230,3.0,6.0,90,0.00,,,0.01,,2013-01-12 01:12:00,
2013-01-11 19:22:00,43.0,41.0,29.43,WSW,256,2.0,5.0,91,0.00,,,0.01,,2013-01-12 01:22:00,
2013-01-11 19:32:00,41.0,39.0,29.44,WNW,300,5.0,9.0,92,0.00,,,0.01,,2013-01-12 01:32:00,
2013-01-11 19:42:00,41.0,39.0,29.44,WNW,300,5.0,9.0,92,0.00,,,0.01,,2013-01-12 01:42:00,
2013-01-11 19:52:00,40.0,38.0,29.44,WNW,294,2.0,7.0,92,0.00,,,0.01,,2013-01-12 01:52:00,
2013-01-11 20:02:00,40.0,38.0,29.45,WNW,290,2.0,8.0,92,0.00,,,0.01,,2013-01-12 02:02:00,
2013-01-11 20:12:00,40.0,38.0,29.45,WNW,290,2.0,8.0,92,0.00,,,0.01,,2013-01-12 02:12:00,
2013-01-11 20:22:00,39.0,37.0,29.46,WNW,291,8.0,13.0,91,0.00,,,0.01,,2013-01-12 02:22:00,
2013-01-11 20:32:00,38.0,36.0,29.48,WNW,290,6.0,15.0,93,0.00,,,0.01,,2013-01-12 02:32:00,
2013-01-11 20:42:00,38.0,36.0,29.48,WNW,290,6.0,15.0,93,0.00,,,0.01,,2013-01-12 02:42:00,
2013-01-11 20:53:00,35.0,33.0,29.49,WNW,300,11.0,19.0,92,0.00,,,0.01,,2013-01-12 02:53:00,
2013-01-11 21:02:00,33.0,31.0,29.50,NW,308,9.0,18.0,93,0.00,,,0.01,,2013-01-12 03:02:00,
2013-01-11 21:12:00,33.0,31.0,29.50,NW,308,9.0,18.0,93,0.00,,,0.01,,2013-01-12 03:12:00,
2013-01-11 21:22:00,33.0,31.0,29.50,NW,308,9.0,18.0,93,0.00,,,0.01,,2013-01-12 03:22:00,
2013-01-11 21:32:00,32.0,30.0,29.50,West,267,8.0,15.0,91,0.00,,,0.01,,2013-01-12 03:32:00,
2013-01-11 21:43:00,32.0,30.0,29.50,West,267,8.0,15.0,91,0.00,,,0.01,,2013-01-12 03:43:00,
2013-01-11 21:53:00,32.0,30.0,29.54,SW,223,9.0,19.0,91,0.00,,,0.01,,2013-01-12 03:53:00,
2013-01-11 22:02:00,32.0,29.0,29.56,West,261,11.0,26.0,89,0.00,,,0.01,,2013-01-12 04:02:00,
2013-01-11 22:12:00,32.0,29.0,29.56,West,261,11.0,26.0,89,0.00,,,0.01,,2013-01-12 04:12:00,
2013-01-11 22:22:00,31.0,28.0,29.57,West,271,19.0,32.0,90,0.00,,,0.01,,2013-01-12 04:22:00,
2013-01-11 22:32:00,30.0,27.0,29.59,West,269,14.0,27.0,90,0.00,,,0.01,,2013-01-12 04:32:00,
2013-01-11 22:42:00,30.0,27.0,29.59,West,269,14.0,27.0,90,0.00,,,0.01,,2013-01-12 04:42:00,
2013-01-11 22:52:00,30.0,27.0,29.61,WSW,258,14.0,25.0,90,0.00,,,0.01,,2013-01-12 04:52:00,
2013-01-11 23:03:00,29.0,26.0,29.63,WSW,258,18.0,29.0,88,0.00,,,0.01,,2013-01-12 05:03:00,
2013-01-11 23:12:00,29.0,26.0,29.63,WSW,258,18.0,29.0,88,0.00,,,0.01,,2013-01-12 05:12:00,
2013-01-11 23:22:00,28.0,25.0,29.65,West,266,12.0,21.0,87,0.00,,,0.01,,2013-01-12 05:22:00,
2013-01-11 23:32:00,28.0,25.0,29.66,West,270,14.0,26.0,87,0.00,,,0.01,,2013-01-12 05:32:00,
2013-01-11 23:42:00,28.0,25.0,29.66,West,270,14.0,26.0,87,0.00,,,0.01,,2013-01-12 05:42:00,
2013-01-11 23:52:00,28.0,24.0,29.67,West,278,11.0,24.0,86,0.00,,,0.01,,2013-01-12 05:52:00,